[TLELIST] Archives

 

[list_settings.list_name] Current TLEs

December 14th 2011 PST

HST 1 20580U 90037B 11347.17678168 .00003263 00000-0 23064-3 0 9042 2 20580 028.4717 286.8741 0003564 222.7757 137.2358 15.01987885986589 ISS (ZARYA) 1 25544U 98067A 11347.26750000 .00018912 00000-0 24899-3 0 6146 2 25544 051.6437 339.8304 0025016 159.0386 025.6475 15.58126376748860 CXO 1 25867U 99040B 11346.16666667 -.00000705 00000-0 00000+0 0 6774 2 25867 070.7935 018.9578 8725134 277.5274 359.1035 00.37803291 8448 ____________________________________________________________________ These 2-Line ...Continue Reading

[list_settings.list_name] Current TLEs

December 13th 2011 PST

HST 1 20580U 90037B 11344.25307445 .00003477 00000-0 24666-3 0 9030 2 20580 028.4717 305.9879 0003616 193.3292 166.7140 15.01970901986148 ISS (ZARYA) 1 25544U 98067A 11346.36157800 .00019501 00000-0 25689-3 0 6081 2 25544 051.6432 344.3748 0024836 155.4957 344.3191 15.58092544748721 CXO 1 25867U 99040B 11346.16666667 -.00000705 00000-0 00000+0 0 6774 2 25867 070.7935 018.9578 8725134 277.5274 359.1035 00.37803291 8448 ____________________________________________________________________ These 2-Line ...Continue Reading

[list_settings.list_name] Current TLEs

December 12th 2011 PST

HST 1 20580U 90037B 11344.25307445 .00003477 00000-0 24666-3 0 9030 2 20580 028.4717 305.9879 0003616 193.3292 166.7140 15.01970901986148 ISS (ZARYA) 1 25544U 98067A 11345.39264056 .00089611 00000-0 11470-2 0 6019 2 25544 051.6442 349.2365 0024772 151.8900 309.4773 15.58079415748571 CXO 1 25867U 99040B 11346.16666667 -.00000705 00000-0 00000+0 0 6774 2 25867 070.7935 018.9578 8725134 277.5274 359.1035 00.37803291 8448 ____________________________________________________________________ These 2-Line ...Continue Reading

[list_settings.list_name] Current TLEs

December 11th 2011 PST

HST 1 20580U 90037B 11344.25307445 .00003477 00000-0 24666-3 0 9030 2 20580 028.4717 305.9879 0003616 193.3292 166.7140 15.01970901986148 ISS (ZARYA) 1 25544U 98067A 11344.50096750 -.00026121 00000-0 -33082-3 0 5950 2 25544 051.6438 353.7070 0025380 148.9007 347.8099 15.57997610748437 CXO 1 25867U 99040B 11346.16666667 -.00000705 00000-0 00000+0 0 6774 2 25867 070.7935 018.9578 8725134 277.5274 359.1035 00.37803291 8448 ____________________________________________________________________ These 2-Line ...Continue Reading

[list_settings.list_name] Current TLEs

December 10th 2011 PST

HST 1 20580U 90037B 11343.25634856 .00003542 00000-0 25158-3 0 9027 2 20580 028.4715 312.5020 0003589 184.6290 175.4275 15.01964800985997 ISS (ZARYA) 1 25544U 98067A 11343.47713631 .00022040 00000-0 28058-3 0 5882 2 25544 051.6423 358.8415 0028548 144.6460 004.7788 15.58791132748273 CXO 1 25867U 99040B 11343.50000000 -.00000787 00000-0 00000+0 0 6761 2 25867 070.7755 019.1852 8722681 277.5169 356.0290 00.37800689 8439 ____________________________________________________________________ These 2-Line ...Continue Reading

[list_settings.list_name] Current TLEs

December 9th 2011 PST

HST 1 20580U 90037B 11341.26288436 .00003571 00000-0 25385-3 0 9018 2 20580 028.4713 325.5369 0003586 162.9826 197.0928 15.01951674985693 ISS (ZARYA) 1 25544U 98067A 11342.45045134 .00018203 00000-0 23341-3 0 5825 2 25544 051.6436 003.9972 0028855 140.1841 004.1211 15.58734644748111 CXO 1 25867U 99040B 11343.50000000 -.00000787 00000-0 00000+0 0 6761 2 25867 070.7755 019.1852 8722681 277.5169 356.0290 00.37800689 8439 ____________________________________________________________________ These 2-Line ...Continue Reading

[list_settings.list_name] Current TLEs

December 8th 2011 PST

HST 1 20580U 90037B 11341.26288436 .00003571 00000-0 25385-3 0 9018 2 20580 028.4713 325.5369 0003586 162.9826 197.0928 15.01951674985693 ISS (ZARYA) 1 25544U 98067A 11341.35119262 .00013163 00000-0 17116-3 0 5752 2 25544 051.6470 009.5150 0028553 136.4705 315.3731 15.58684314747943 CXO 1 25867U 99040B 11340.87500000 -.00000779 00000-0 00000+0 0 6753 2 25867 070.7615 019.3589 8723040 277.5288 358.6035 00.37803978 8423 ____________________________________________________________________ These 2-Line ...Continue Reading

[list_settings.list_name] Current TLEs

December 7th 2011 PST

HST 1 20580U 90037B 11340.19969835 .00003526 00000-0 25050-3 0 9006 2 20580 028.4713 332.4877 0003594 151.8858 208.2091 15.01944114985535 ISS (ZARYA) 1 25544U 98067A 11340.40660880 .00026837 00000-0 34165-3 0 5704 2 25544 051.6440 014.2486 0028668 132.9633 055.1030 15.58657563747793 CXO 1 25867U 99040B 11340.87500000 -.00000779 00000-0 00000+0 0 6753 2 25867 070.7615 019.3589 8723040 277.5288 358.6035 00.37803978 8423 ____________________________________________________________________ These 2-Line ...Continue Reading

[list_settings.list_name] Current TLEs

December 6th 2011 PST

HST 1 20580U 90037B 11338.27265474 .00003346 00000-0 23721-3 0 8990 2 20580 028.4710 345.0877 0003566 132.9328 227.1655 15.01930061985243 ISS (ZARYA) 1 25544U 98067A 11339.38130787 .00027260 00000-0 34761-3 0 5632 2 25544 051.6438 019.3942 0028687 129.2812 061.9312 15.58603614747631 CXO 1 25867U 99040B 11340.87500000 -.00000779 00000-0 00000+0 0 6753 2 25867 070.7615 019.3589 8723040 277.5288 358.6035 00.37803978 8423 ____________________________________________________________________ These 2-Line ...Continue Reading

[list_settings.list_name] Current TLEs

December 5th 2011 PST

HST 1 20580U 90037B 11338.27265474 .00003346 00000-0 23721-3 0 8990 2 20580 028.4710 345.0877 0003566 132.9328 227.1655 15.01930061985243 ISS (ZARYA) 1 25544U 98067A 11338.46582848 .00027104 00000-0 34639-3 0 5551 2 25544 051.6428 023.9884 0028564 126.2513 324.8956 15.58552600747492 CXO 1 25867U 99040B 11338.20833333 -.00000671 00000-0 00000+0 0 6745 2 25867 070.7387 019.5592 8724807 277.5185 355.5688 00.37807468 8410 ____________________________________________________________________ These 2-Line ...Continue Reading
  • This mailing list is a public mailing list - anyone may join or leave, at any time.
  • This mailing list is announce-only.

International Space Station (ISS) / Hubble Space Telescope (HST) / Chandra X-Ray Observatory Orbital Data via EMAIL

Privacy Policy:

Private list